Davenport, IA

5:41 AM CDT on April 25, 2017 (GMT -0500)
Davenport Municipal

Weather History for KDVN - June, 2012

Change the Weather History Date:

Saturday, June 30, 2012

  Actual Average Record
Temperature  
Mean Temperature 76 °F 73 °F  
Max Temperature 88 °F 84 °F 95 °F (1963)
Min Temperature 64 °F 63 °F 53 °F (2007)
Degree Days  
Heating Degree Days 0 0  
Month to date heating degree days 17 22  
Since 1 June heating degree days 17 24  
Since 1 July heating degree days 5256 6511  
Cooling Degree Days 11 8  
Month to date cooling degree days 225 182  
Year to date cooling degree days 379 243  
Since 1 June cooling degree days 225 182  
Growing Degree Days 26 (Base 50)    
Moisture  
Dew Point 69 °F    
Average Humidity 78    
Maximum Humidity 100    
Minimum Humidity 55    
Precipitation  
Precipitation 0.00 in 0.12 in 4.50 in (1983)
Month to date precipitation 1.58 4.19  
Year to date precipitation 15.23 17.00  
Snow  
Snow 0.00 in - - ()
Month to date snowfall 0.0  
Since 1 June snowfall 0.0  
Since 1 July snowfall 21.2  
Snow Depth 0.00 in    
Sea Level Pressure  
Sea Level Pressure 29.84 in    
Wind  
Wind Speed 3 mph (WNW)    
Max Wind Speed 13 mph    
Max Gust Speed 15 mph    
Visibility 6 miles    
Events      
T = Trace of Precipitation, MM = Missing Value Source: NWS Daily Summary

Daily Weather History Graph

Daily Weather History Graph

Search for Another Location

Airport or City:

Trip Planner

Search our weather history database for the weather conditions in past years. The results will help you decide how hot, cold, wet, or windy it might be!

Date:

Astronomy

Jun. 30, 2012 Rise Set
Actual Time 5:31 AM CDT 8:40 PM CDT
Civil Twilight 4:57 AM CDT 9:14 PM CDT
Nautical Twilight 4:14 AM CDT 9:57 PM CDT
Astronomical Twilight 3:22 AM CDT 10:49 PM CDT
Moon 5:36 PM CDT (6/30) 2:28 AM CDT (6/30)
Length of Visible Light 16h 16m
Length of Day
15h 08m
Waxing Gibbous, 87% of the Moon is Illuminated
Jun 30
Waxing Gibbous
Jul 3
Full
Jul 10
Last Quarter
Jul 18
New
Jul 26
First Quarter

Hourly Weather History & Observations

Time (CDT) Temp. Heat Index Dew Point Humidity Pressure Visibility Wind Dir Wind Speed Gust Speed Precip Events Conditions
12:52 AM 71.1 °F - 68.0 °F 90% 29.81 in 10.0 mi SW 3.5 mph - N/A   Clear
1:52 AM 71.1 °F - 66.9 °F 87% 29.81 in 9.0 mi SW 4.6 mph - N/A   Clear
2:52 AM 71.1 °F - 66.9 °F 87% 29.81 in 8.0 mi West 6.9 mph - N/A   Clear
3:52 AM 68.0 °F - 66.0 °F 93% 29.80 in 6.0 mi WSW 3.5 mph - N/A   Clear
4:52 AM 64.9 °F - 64.0 °F 97% 29.81 in 4.0 mi North 3.5 mph - N/A   Clear
5:19 AM 64.4 °F - 64.4 °F 100% 29.84 in 2.0 mi Calm Calm - N/A   Clear
5:30 AM 64.4 °F - 64.4 °F 100% 29.84 in 1.2 mi North 5.8 mph - N/A   Partly Cloudy
5:37 AM 64.4 °F - 62.6 °F 94% 29.84 in 1.0 mi Calm Calm - N/A   Mist
6:37 AM 69.8 °F - 68.0 °F 94% 29.83 in 2.0 mi North 5.8 mph - N/A   Clear
6:52 AM 70.0 °F - 68.0 °F 93% 29.84 in 3.0 mi NNW 5.8 mph - N/A   Clear
7:52 AM 69.1 °F - 66.9 °F 93% 29.88 in 3.0 mi SSW 3.5 mph - N/A   Partly Cloudy
8:52 AM 72.0 °F - 68.0 °F 87% 29.84 in 4.0 mi NE 4.6 mph - N/A   Scattered Clouds
9:52 AM 75.9 °F - 70.0 °F 82% 29.84 in 6.0 mi NE 8.1 mph - N/A   Haze
10:52 AM 78.1 °F - 70.0 °F 76% 29.86 in 8.0 mi SE 3.5 mph - N/A   Clear
11:52 AM 84.0 °F 88.4 °F 70.0 °F 63% 29.86 in 10.0 mi Calm Calm - N/A   Clear
12:52 PM 84.9 °F 89.4 °F 70.0 °F 61% 29.85 in 10.0 mi Variable 3.5 mph - N/A   Clear
2:52 PM 87.1 °F 92.0 °F 70.0 °F 57% 29.83 in 6.0 mi Variable 4.6 mph - N/A   Haze
3:52 PM 88.0 °F 92.1 °F 69.1 °F 53% 29.83 in 10.0 mi Calm Calm - N/A   Clear
4:52 PM 86.0 °F 91.5 °F 71.1 °F 61% 29.83 in 9.0 mi Calm Calm - N/A   Clear
5:52 PM 86.0 °F 93.0 °F 73.0 °F 65% 29.84 in 9.0 mi SW 5.8 mph - N/A   Clear
6:52 PM 84.9 °F 91.4 °F 73.0 °F 67% 29.84 in 9.0 mi Calm Calm - N/A   Clear
7:52 PM 82.9 °F 90.2 °F 75.0 °F 77% 29.85 in 8.0 mi Calm Calm - N/A   Clear
8:52 PM 75.0 °F - 73.0 °F 94% 29.85 in 7.0 mi Calm Calm - N/A   Clear
9:52 PM 73.9 °F - 71.1 °F 91% 29.85 in 5.0 mi East 3.5 mph - N/A   Clear
10:52 PM 73.0 °F - 70.0 °F 90% 29.85 in 6.0 mi SSE 4.6 mph - N/A   Clear
11:52 PM 71.1 °F - 68.0 °F 90% 29.86 in 6.0 mi Calm Calm - N/A   Clear